User: anonymous   Login
Location: Doschendorf
(50.0069°N, 11.0602°E)
Time: 19:30:58
(UTC+00:00)
Language:

ATLAS 3B R/B - Orbit

View from above orbital plane
View from above orbital plane
View from above satellite
View from above satellite

Ground track
Ground track

The orbit data is extracted from the following two-line orbital elements,

1 28538U 05004B   20019.18254078 0.00000000  00000-0  00000-0 0    05
2 28538  63.8267  72.1951 0093776  68.6114 291.3885 13.43127502    07
Epoch (UTC): 19 January 2020 04:22:51
Eccentricity: 0.0093776
inclination: 63.8267°
perigee height: 1027 km
apogee height: 1168 km
right ascension of ascending node: 72.1951°
argument of perigee: 68.6114°
revolutions per day: 13.43127502
mean anomaly at epoch: 291.3885°
orbit number at epoch: 0

The dashed part of the orbit path shows where the satellite is in the earth's shadow,  

DLR